FLOCK 3R-13 (43750 NORAD) Tracking and Keplerian Element Data

This shows tracking and keplerian element data for the satellite.

Feedback or suggestion? Click here.




ElementValue
Catalog43750
NameFLOCK 3R-13
Epoch Orbit458
Epoch Day363.19077992
Epoch Year2018
RAAN68.2519
Inclination97.4806
Eccentricity0.0021259
Argument of Perigee221.1526
Mean Anonmoly224.6175
Mean Motion15.27022985
Decay Rate1.421E-05
L11 43750U 18096AH 18363.19077992 .00001421 00000-0 56137-4 0 9992
L22 43750 97.4806 68.2519 0021259 221.1526 224.6175 15.27022985 4589

Live tracking and technical data element details for FLOCK 3R-13 (NORAD 43750). FLOCK 3R-13 can be tracked NOW for your location showing map with azimuth and elevation plus other details from your city location.

Track the satellite on the map from your city or location and see movement details for azimuth, elevation, latitude, longitude, range, height, and movement on the map or in text.







IsCatalogInMostPopularTable: catalog: 43750, numindb: 133
Update: records affected: 1



GetName: 43750 FLOCK 3R-13

Hit Count: updated at: Sat, 20 Jul 2019 23:03:02 GMT